TimeCST,TemperatureF,Dew PointF,Humidity,Sea Level PressureIn,VisibilityMPH,Wind Direction,Wind SpeedMPH,Gust SpeedMPH,PrecipitationIn,Events,Conditions,WindDirDegrees,DateUTC
6:00 AM,80,71,67,29.85,12,East,10.4,,,,Partly Cloudy,80,2013-08-06 12:00:00
6:00 AM,80.6,71.6,74,29.83,6.2,East,10.4,-,N/A,,Scattered Clouds,80,2013-08-06 12:00:00
7:00 AM,82.4,71.6,70,29.85,6.2,East,12.7,-,N/A,,Mostly Cloudy,80,2013-08-06 13:00:00
8:00 AM,80.6,71.6,74,29.87,6.2,SE,11.5,-,N/A,,Mostly Cloudy,140,2013-08-06 14:00:00
9:00 AM,86,73,58,29.89,12,SE,9.2,,,,Haze,140,2013-08-06 15:00:00
9:00 AM,86.0,73.4,66,29.87,6.2,SE,9.2,-,N/A,,Mostly Cloudy,140,2013-08-06 15:00:00
10:00 AM,89.6,71.6,55,29.87,6.2,East,8.1,-,N/A,,Mostly Cloudy,90,2013-08-06 16:00:00
11:00 AM,91.4,68.0,46,29.86,6.2,East,15.0,-,N/A,,Mostly Cloudy,90,2013-08-06 17:00:00
12:00 PM,92,69,38,29.86,12,East,13.8,,,,Haze,90,2013-08-06 18:00:00
12:00 PM,91.4,69.8,49,29.84,6.2,East,13.8,-,N/A,,Mostly Cloudy,90,2013-08-06 18:00:00
1:00 PM,93.2,66.2,41,29.82,6.2,East,15.0,-,N/A,,Mostly Cloudy,90,2013-08-06 19:00:00
2:00 PM,93.2,68.0,44,29.82,6.2,East,11.5,-,N/A,,Mostly Cloudy,90,2013-08-06 20:00:00
3:00 PM,92,70,38,29.83,9,NE,12.7,,,,Overcast,50,2013-08-06 21:00:00
3:00 PM,93.2,69.8,46,29.82,6.2,NE,12.7,-,N/A,,Mostly Cloudy,50,2013-08-06 21:00:00
4:00 PM,93.2,69.8,46,29.82,6.2,NE,11.5,-,N/A,,Mostly Cloudy,40,2013-08-06 22:00:00
5:00 PM,89.6,69.8,52,29.83,6.2,NE,11.5,-,N/A,,Overcast,50,2013-08-06 23:00:00
6:00 PM,86,70,51,29.86,9,NE,10.4,,,,Overcast,50,2013-08-07 00:00:00
6:00 PM,86.0,69.8,58,29.84,-9999.0,NE,10.4,-,N/A,,Clear,50,2013-08-07 00:00:00
7:00 PM,84.2,69.8,62,29.85,-9999.0,ENE,6.9,-,N/A,,Clear,70,2013-08-07 01:00:00
8:00 PM,84.2,71.6,66,29.87,-9999.0,East,4.6,-,N/A,,Clear,80,2013-08-07 02:00:00